Location: Stilling
(56.0622°N, 9.9882°E)
Time: 23:45:03
(UTC+00:00)

Cosmos 1110 Rocket - Pass Details

Date: 13 July 2020
Orbit: 752 x 782 km, 74.0° (Epoch: 14 August)

Event Time Altitude Azimuth Distance (km) Brightness Sun altitude
Rises 21:52:19 0° 331° (NNW) 3,258 9.4 -9.8°
Reaches altitude 10° 21:54:42 10° 332° (NNW) 2,332 8.1 -9.9°
Maximum altitude 22:00:01 83° 60° (ENE) 792 4.1 -10.2°
Enters shadow 22:04:46 13° 149° (SSE) 2,116 5.6 -10.4°
